Shelbyville, IN

7:52 AM EST on December 16, 2019 (GMT -0500)
Shelbyville Municipal

Weather History for KGEZ - October, 2019

Change the Weather History Date:

Monday, October 14, 2019

  Actual Average Record
Temperature  
Mean Temperature 50 °F 55 °F  
Max Temperature 64 °F 66 °F 84 °F (2017)
Min Temperature 36 °F 43 °F 30 °F (2002)
Degree Days  
Heating Degree Days 15 11  
Month to date heating degree days 126  
Since 1 July heating degree days 211  
Cooling Degree Days 0 0  
Month to date cooling degree days 11  
Year to date cooling degree days 910  
Moisture  
Dew Point 37 °F    
Average Humidity 65    
Maximum Humidity 92    
Minimum Humidity 34    
Precipitation  
Precipitation 0.00 in 0.10 in 1.55 in (2003)
Month to date precipitation 0.80 1.47  
Year to date precipitation 33.01 34.92  
Sea Level Pressure  
Sea Level Pressure 30.06 in    
Wind  
Wind Speed 5 mph (West)    
Max Wind Speed 15 mph    
Max Gust Speed 22 mph    
Visibility 10 miles    
Events      
T = Trace of Precipitation, MM = Missing Value Source: NWS Daily Summary

Daily Weather History Graph

Daily Weather History Graph

Search for Another Location

Airport or City:

Astronomy

Oct. 14, 2019 Rise Set
Actual Time 7:52 AM EDT 7:05 PM EDT
Civil Twilight 7:24 AM EDT 7:32 PM EDT
Nautical Twilight 6:53 AM EDT 8:04 PM EDT
Astronomical Twilight 6:22 AM EDT 8:35 PM EDT
Moon 7:55 PM EDT (10/14) 8:23 AM EDT (10/14)
Length of Visible Light 12h 07m
Length of Day
11h 13m
Waxing Gibbous, 99% of the Moon is Illuminated
Oct 14
Waxing Gibbous
Oct 21
Last Quarter
Oct 27
New
Nov 4
First Quarter
Nov 12
Full

Hourly Weather History & Observations

Time (EDT) Temp. Windchill Dew Point Humidity Pressure Visibility Wind Dir Wind Speed Gust Speed Precip Events Conditions
12:53 AM 48.0 °F - 37.9 °F 68% 29.96 in 10.0 mi SW 6.9 mph - N/A   Clear
1:53 AM 46.9 °F - 37.9 °F 71% 29.96 in 10.0 mi WSW 4.6 mph - N/A   Clear
2:53 AM 46.0 °F 43.9 °F 37.9 °F 73% 29.98 in 10.0 mi West 4.6 mph - N/A   Clear
3:53 AM 42.1 °F 40.2 °F 36.0 °F 79% 29.99 in 10.0 mi WNW 3.5 mph - N/A   Clear
4:53 AM 39.0 °F 36.8 °F 34.0 °F 82% 30.01 in 10.0 mi NW 3.5 mph - N/A   Clear
5:53 AM 37.9 °F - 34.0 °F 86% 30.02 in 10.0 mi Calm Calm - N/A   Clear
6:53 AM 37.0 °F - 33.1 °F 86% 30.05 in 10.0 mi Calm Calm - N/A   Clear
7:53 AM 36.0 °F - 33.1 °F 89% 30.06 in 10.0 mi Calm Calm - N/A   Clear
8:53 AM 42.1 °F - 39.0 °F 89% 30.09 in 10.0 mi Calm Calm - N/A   Clear
9:53 AM 50.0 °F - 39.9 °F 68% 30.11 in 10.0 mi WSW 3.5 mph - N/A   Clear
10:53 AM 53.1 °F - 36.0 °F 52% 30.11 in 10.0 mi Variable 3.5 mph - N/A   Clear
11:53 AM 57.0 °F - 37.0 °F 47% 30.11 in 10.0 mi WSW 4.6 mph - N/A   Clear
12:53 PM 61.0 °F - 36.0 °F 39% 30.11 in 10.0 mi West 10.4 mph - N/A   Clear
1:53 PM 62.1 °F - 36.0 °F 38% 30.09 in 10.0 mi West 8.1 mph 16.1 mph N/A   Clear
2:53 PM 63.0 °F - 35.1 °F 35% 30.08 in 10.0 mi West 10.4 mph 19.6 mph N/A   Clear
3:53 PM 64.0 °F - 36.0 °F 35% 30.07 in 10.0 mi West 12.7 mph 19.6 mph N/A   Clear
4:53 PM 64.0 °F - 36.0 °F 35% 30.07 in 10.0 mi West 6.9 mph - N/A   Clear
5:53 PM 63.0 °F - 37.0 °F 38% 30.07 in 10.0 mi WSW 8.1 mph - N/A   Clear
6:53 PM 59.0 °F - 37.9 °F 46% 30.08 in 10.0 mi West 4.6 mph - N/A   Clear
7:53 PM 48.9 °F - 39.9 °F 71% 30.09 in 10.0 mi Calm Calm - N/A   Clear
8:53 PM 45.0 °F - 39.0 °F 80% 30.10 in 10.0 mi Calm Calm - N/A   Clear
9:53 PM 44.1 °F - 39.0 °F 82% 30.09 in 10.0 mi Calm Calm - N/A   Clear
10:53 PM 42.1 °F 38.4 °F 37.9 °F 85% 30.10 in 10.0 mi East 5.8 mph - N/A   Clear
11:53 PM 41.0 °F 39.0 °F 37.0 °F 86% 30.10 in 10.0 mi ENE 3.5 mph - N/A   Clear